QPF
0.00 0.00 0.00 0.00 0.00 0.00 0.00 0.00 0.00 0.00 0.00 0.00 0.00 0.00 0.00 0.00 0.00 0.00 0.00 0.00 0.00 0.00 0.01 0.01 0.00 0.00 0.01 0.01 0.01 0.01 0.02 0.01 0.00 0.00 0.00 0.00 0.00 0.01 0.00 0.00 0.00 0.00 0.00
0.00 0.00 0.00 0.00 0.00 0.00 0.00 0.00 0.00 0.00 0.00 0.00 0.00 0.00 0.00 0.00 0.00 0.00 0.00 0.00 0.00 0.00 0.00 0.01 0.00 0.00 0.00 0.01 0.01 0.01 0.01 0.01 0.01 0.01 0.00 0.00 0.00 0.00 0.00 0.00 0.00 0.00 0.00
0.01 0.01 0.00 0.00 0.00 0.00 0.00 0.00 0.00 0.00 0.00 0.00 0.00 0.00 0.00 0.00 0.00 0.00 0.00 0.00 0.00 0.00 0.01 0.01 0.01 0.00 0.00 0.00 0.00 0.00 0.00 0.00 0.01 0.01 0.01 0.00 0.00 0.00 0.00 0.00 0.00 0.00 0.00
0.01 0.01 0.00 0.00 0.00 0.00 0.00 0.00 0.00 0.00 0.00 0.00 0.00 0.00 0.00 0.00 0.00 0.00 0.00 0.00 0.00 0.00 0.01 0.01 0.01 0.00 0.00 0.00 0.00 0.00 0.00 0.01 0.01 0.02 0.02 0.01 0.01 0.00 0.00 0.01 0.00 0.01 0.01
0.01 0.01 0.01 0.00 0.00 0.00 0.00 0.00 0.00 0.00 0.00 0.00 0.00 0.00 0.00 0.00 0.00 0.00 0.00 0.00 0.00 0.00 0.00 0.00 0.00 0.00 0.00 0.00 0.00 0.00 0.00 0.01 0.02 0.03 0.03 0.02 0.01 0.01 0.01 0.01 0.01 0.02 0.02
0.01 0.01 0.01 0.01 0.01 0.00 0.00 0.00 0.00 0.00 0.00 0.00 0.00 0.00 0.00 0.00 0.00 0.00 0.00 0.00 0.00 0.00 0.00 0.00 0.00 0.00 0.00 0.00 0.00 0.00 0.00 0.01 0.02 0.03 0.04 0.04 0.04 0.03 0.03 0.03 0.03 0.03 0.02
0.01 0.01 0.01 0.01 0.01 0.01 0.00 0.00 0.00 0.00 0.00 0.00 0.00 0.00 0.00 0.00 0.00 0.00 0.00 0.00 0.00 0.00 0.00 0.00 0.00 0.00 0.00 0.00 0.00 0.00 0.00 0.00 0.01 0.02 0.03 0.04 0.05 0.05 0.04 0.03 0.02 0.01 0.01
0.01 0.02 0.01 0.01 0.01 0.02 0.00 0.00 0.00 0.00 0.00 0.00 0.00 0.00 0.00 0.00 0.00 0.00 0.00 0.00 0.00 0.00 0.00 0.00 0.00 0.00 0.00 0.00 0.00 0.00 0.00 0.00 0.00 0.01 0.02 0.03 0.02 0.02 0.01 0.01 0.01 0.00 0.01
0.01 0.01 0.01 0.01 0.01 0.01 0.00 0.00 0.00 0.01 0.01 0.01 0.01 0.01 0.00 0.00 0.00 0.00 0.00 0.00 0.00 0.00 0.00 0.00 0.00 0.00 0.00 0.00 0.00 0.00 0.00 0.00 0.00 0.00 0.01 0.01 0.01 0.01 0.01 0.00 0.00 0.01 0.01
0.01 0.01 0.01 0.01 0.02 0.02 0.01 0.01 0.01 0.01 0.01 0.01 0.01 0.01 0.01 0.00 0.00 0.00 0.00 0.00 0.00 0.00 0.00 0.00 0.00 0.00 0.00 0.00 0.00 0.00 0.00 0.00 0.00 0.00 0.00 0.00 0.01 0.01 0.00 0.00 0.01 0.01 0.01
0.01 0.02 0.01 0.01 0.02 0.03 0.03 0.02 0.02 0.01 0.01 0.01 0.01 0.01 0.01 0.00 0.00 0.00 0.00 0.00 0.00 0.00 0.00 0.00 0.00 0.00 0.00 0.00 0.00 0.00 0.00 0.00 0.00 0.00 0.00 0.00 0.00 0.00 0.00 0.00 0.00 0.01 0.01
0.02 0.02 0.02 0.02 0.02 0.03 0.05 0.05 0.03 0.03 0.02 0.02 0.01 0.01 0.01 0.00 0.00 0.00 0.00 0.00 0.00 0.00 0.00 0.00 0.00 0.00 0.00 0.00 0.00 0.00 0.00 0.00 0.00 0.00 0.00 0.00 0.00 0.00 0.00 0.00 0.00 0.00 0.01
0.02 0.01 0.01 0.02 0.02 0.02 0.03 0.04 0.04 0.03 0.02 0.02 0.01 0.01 0.00 0.00 0.00 0.00 0.00 0.00 0.00 0.00 0.00 0.00 0.00 0.00 0.00 0.00 0.00 0.00 0.00 0.00 0.00 0.00 0.00 0.00 0.00 0.00 0.00 0.00 0.00 0.00 0.00
0.02 0.01 0.01 0.02 0.02 0.01 0.01 0.02 0.03 0.03 0.02 0.02 0.02 0.01 0.01 0.00 0.00 0.00 0.00 0.00 0.00 0.00 0.00 0.00 0.00 0.00 0.00 0.00 0.00 0.00 0.00 0.00 0.00 0.00 0.00 0.00 0.00 0.00 0.00 0.00 0.00 0.00 0.00
0.02 0.03 0.03 0.03 0.02 0.02 0.01 0.02 0.02 0.03 0.04 0.02 0.01 0.01 0.01 0.00 0.00 0.00 0.00 0.00 0.00 0.00 0.00 0.00 0.00 0.00 0.00 0.00 0.00 0.00 0.00 0.00 0.00 0.00 0.00 0.00 0.00 0.00 0.00 0.00 0.00 0.00 0.00
0.04 0.04 0.04 0.05 0.07 0.06 0.04 0.02 0.02 0.02 0.03 0.02 0.02 0.01 0.01 0.00 0.00 0.00 0.00 0.00 0.00 0.00 0.00 0.00 0.00 0.00 0.00 0.00 0.00 0.00 0.00 0.00 0.00 0.00 0.00 0.00 0.00 0.00 0.00 0.00 0.00 0.00 0.00
0.03 0.03 0.02 0.02 0.02 0.03 0.03 0.02 0.02 0.02 0.03 0.03 0.03 0.02 0.01 0.00 0.00 0.00 0.00 0.00 0.00 0.00 0.00 0.00 0.00 0.00 0.00 0.00 0.00 0.00 0.00 0.00 0.00 0.00 0.00 0.00 0.00 0.00 0.00 0.00 0.00 0.00 0.00
0.03 0.02 0.02 0.01 0.01 0.01 0.00 0.00 0.01 0.01 0.02 0.04 0.04 0.02 0.02 0.01 0.01 0.00 0.00 0.00 0.00 0.00 0.00 0.00 0.00 0.00 0.00 0.00 0.00 0.00 0.00 0.01 0.01 0.00 0.00 0.00 0.00 0.00 0.00 0.00 0.00 0.00 0.00
0.02 0.02 0.02 0.01 0.01 0.01 0.01 0.01 0.00 0.01 0.02 0.03 0.03 0.02 0.01 0.01 0.01 0.00 0.00 0.00 0.00 0.00 0.00 0.00 0.00 0.00 0.00 0.00 0.00 0.00 0.00 0.00 0.00 0.00 0.01 0.01 0.01 0.01 0.01 0.01 0.01 0.01 0.01
0.02 0.02 0.01 0.01 0.02 0.01 0.01 0.01 0.01 0.01 0.01 0.01 0.01 0.01 0.02 0.01 0.01 0.01 0.01 0.01 0.01 0.00 0.00 0.00 0.00 0.00 0.00 0.00 0.00 0.00 0.00 0.00 0.00 0.00 0.00 0.00 0.01 0.01 0.01 0.00 0.01 0.01 0.01
0.02 0.02 0.02 0.02 0.02 0.02 0.01 0.01 0.01 0.01 0.01 0.01 0.01 0.01 0.01 0.01 0.01 0.01 0.01 0.00 0.00 0.00 0.00 0.00 0.00 0.00 0.00 0.00 0.00 0.00 0.00 0.00 0.00 0.00 0.00 0.00 0.00 0.00 0.00 0.00 0.01 0.01 0.01
0.01 0.01 0.02 0.03 0.04 0.03 0.01 0.01 0.01 0.01 0.01 0.01 0.01 0.01 0.01 0.01 0.01 0.01 0.01 0.01 0.01 0.00 0.00 0.00 0.00 0.00 0.00 0.00 0.00 0.00 0.00 0.00 0.00 0.00 0.00 0.00 0.00 0.00 0.00 0.00 0.00 0.01 0.01
0.01 0.01 0.01 0.02 0.03 0.04 0.03 0.01 0.01 0.01 0.02 0.02 0.02 0.01 0.01 0.01 0.01 0.01 0.01 0.01 0.01 0.01 0.01 0.00 0.00 0.00 0.00 0.00 0.00 0.00 0.00 0.00 0.00 0.00 0.00 0.00 0.00 0.00 0.00 0.01 0.01 0.01 0.01
0.01 0.01 0.01 0.01 0.02 0.03 0.03 0.02 0.02 0.02 0.01 0.02 0.02 0.01 0.02 0.02 0.01 0.01 0.01 0.01 0.00 0.00 0.00 0.00 0.00 0.00 0.00 0.00 0.01 0.01 0.01 0.01 0.01 0.01 0.01 0.01 0.01 0.01 0.01 0.01 0.01 0.02 0.02
0.01 0.01 0.01 0.01 0.02 0.02 0.03 0.03 0.02 0.02 0.02 0.02 0.03 0.02 0.02 0.02 0.02 0.01 0.01 0.01 0.00 0.00 0.00 0.00 0.01 0.01 0.01 0.01 0.01 0.01 0.01 0.01 0.01 0.01 0.01 0.01 0.01 0.01 0.01 0.01 0.01 0.01 0.01
0.00 0.01 0.01 0.01 0.02 0.02 0.02 0.02 0.02 0.03 0.02 0.02 0.02 0.02 0.02 0.01 0.01 0.01 0.01 0.01 0.01 0.01 0.01 0.01 0.01 0.01 0.01 0.01 0.01 0.01 0.01 0.00 0.00 0.00 0.00 0.00 0.00 0.00 0.01 0.01 0.01 0.01 0.01
MSLP
1016.93 1017.34 1017.75 1018.13 1018.45 1018.71 1018.92 1019.09 1019.25 1019.42 1019.61 1019.83 1020.07 1020.31 1020.52 1020.70 1020.83 1020.90 1020.94 1020.95 1020.95 1020.98 1021.04 1021.13 1021.27 1021.43 1021.61 1021.80 1021.99 1022.17 1022.33 1022.49 1022.62 1022.74 1022.82 1022.86 1022.84 1022.78 1022.66 1022.49 1022.31 1022.12 1021.97
1016.80 1017.19 1017.58 1017.94 1018.26 1018.54 1018.77 1018.99 1019.19 1019.41 1019.63 1019.87 1020.13 1020.37 1020.60 1020.79 1020.94 1021.05 1021.12 1021.18 1021.22 1021.26 1021.32 1021.39 1021.48 1021.58 1021.70 1021.82 1021.95 1022.10 1022.26 1022.42 1022.60 1022.76 1022.89 1022.98 1023.00 1022.96 1022.84 1022.66 1022.45 1022.22 1022.02
1016.67 1017.05 1017.42 1017.76 1018.08 1018.37 1018.64 1018.89 1019.14 1019.39 1019.64 1019.89 1020.15 1020.40 1020.62 1020.82 1020.99 1021.13 1021.24 1021.34 1021.43 1021.51 1021.58 1021.65 1021.72 1021.78 1021.84 1021.91 1022.00 1022.11 1022.24 1022.41 1022.60 1022.79 1022.95 1023.07 1023.12 1023.09 1022.98 1022.78 1022.54 1022.28 1022.03
1016.53 1016.90 1017.26 1017.60 1017.92 1018.23 1018.52 1018.80 1019.08 1019.36 1019.63 1019.90 1020.15 1020.39 1020.61 1020.80 1020.98 1021.14 1021.29 1021.43 1021.56 1021.68 1021.79 1021.87 1021.94 1021.98 1022.01 1022.04 1022.08 1022.15 1022.26 1022.41 1022.59 1022.78 1022.96 1023.10 1023.17 1023.15 1023.04 1022.85 1022.59 1022.30 1022.01
1016.33 1016.72 1017.08 1017.42 1017.76 1018.08 1018.40 1018.72 1019.03 1019.33 1019.62 1019.89 1020.14 1020.36 1020.56 1020.74 1020.91 1021.08 1021.25 1021.43 1021.60 1021.76 1021.90 1022.02 1022.09 1022.13 1022.14 1022.14 1022.14 1022.18 1022.25 1022.37 1022.53 1022.71 1022.89 1023.03 1023.12 1023.11 1023.02 1022.83 1022.58 1022.28 1021.96
1016.07 1016.48 1016.87 1017.23 1017.58 1017.93 1018.27 1018.62 1018.96 1019.29 1019.60 1019.87 1020.10 1020.30 1020.48 1020.64 1020.79 1020.96 1021.14 1021.33 1021.53 1021.73 1021.90 1022.04 1022.14 1022.18 1022.19 1022.17 1022.14 1022.14 1022.17 1022.25 1022.37 1022.53 1022.70 1022.84 1022.93 1022.95 1022.88 1022.73 1022.50 1022.21 1021.89
1015.72 1016.18 1016.59 1016.99 1017.37 1017.74 1018.12 1018.50 1018.87 1019.22 1019.54 1019.81 1020.03 1020.21 1020.36 1020.49 1020.63 1020.77 1020.94 1021.14 1021.36 1021.58 1021.78 1021.94 1022.05 1022.11 1022.11 1022.08 1022.03 1021.99 1021.99 1022.02 1022.11 1022.23 1022.38 1022.52 1022.62 1022.66 1022.63 1022.52 1022.33 1022.07 1021.78
1015.29 1015.80 1016.26 1016.69 1017.10 1017.51 1017.92 1018.33 1018.73 1019.09 1019.42 1019.69 1019.90 1020.07 1020.19 1020.29 1020.40 1020.52 1020.67 1020.86 1021.08 1021.31 1021.52 1021.70 1021.83 1021.90 1021.91 1021.87 1021.81 1021.74 1021.70 1021.70 1021.75 1021.84 1021.96 1022.08 1022.19 1022.25 1022.26 1022.19 1022.06 1021.86 1021.60
1014.80 1015.36 1015.86 1016.33 1016.77 1017.22 1017.66 1018.09 1018.51 1018.89 1019.23 1019.50 1019.71 1019.85 1019.95 1020.03 1020.11 1020.21 1020.34 1020.51 1020.71 1020.93 1021.15 1021.34 1021.48 1021.56 1021.58 1021.55 1021.48 1021.40 1021.34 1021.31 1021.32 1021.37 1021.46 1021.57 1021.67 1021.75 1021.79 1021.76 1021.68 1021.53 1021.32
1014.27 1014.86 1015.40 1015.91 1016.39 1016.86 1017.32 1017.78 1018.21 1018.61 1018.95 1019.22 1019.42 1019.56 1019.65 1019.70 1019.76 1019.83 1019.94 1020.09 1020.28 1020.50 1020.71 1020.91 1021.06 1021.15 1021.19 1021.17 1021.11 1021.02 1020.95 1020.89 1020.87 1020.89 1020.95 1021.03 1021.12 1021.20 1021.24 1021.24 1021.19 1021.08 1020.92
1013.73 1014.35 1014.92 1015.45 1015.95 1016.45 1016.93 1017.40 1017.84 1018.24 1018.59 1018.86 1019.06 1019.19 1019.27 1019.32 1019.37 1019.43 1019.52 1019.65 1019.83 1020.03 1020.25 1020.44 1020.61 1020.72 1020.77 1020.77 1020.72 1020.65 1020.57 1020.50 1020.46 1020.45 1020.47 1020.51 1020.57 1020.62 1020.65 1020.65 1020.61 1020.52 1020.38
1013.24 1013.86 1014.43 1014.98 1015.50 1016.01 1016.50 1016.98 1017.43 1017.83 1018.18 1018.45 1018.65 1018.79 1018.87 1018.92 1018.96 1019.02 1019.10 1019.23 1019.40 1019.60 1019.81 1020.01 1020.19 1020.31 1020.39 1020.42 1020.39 1020.33 1020.26 1020.19 1020.12 1020.08 1020.06 1020.05 1020.06 1020.06 1020.05 1020.02 1019.96 1019.86 1019.73
1012.81 1013.42 1013.99 1014.54 1015.07 1015.59 1016.09 1016.58 1017.03 1017.43 1017.77 1018.05 1018.25 1018.39 1018.48 1018.54 1018.59 1018.65 1018.75 1018.88 1019.05 1019.24 1019.46 1019.66 1019.85 1020.00 1020.10 1020.15 1020.15 1020.11 1020.05 1019.98 1019.90 1019.82 1019.76 1019.69 1019.63 1019.57 1019.50 1019.41 1019.30 1019.17 1019.01
1012.48 1013.06 1013.62 1014.16 1014.70 1015.23 1015.75 1016.24 1016.69 1017.10 1017.44 1017.72 1017.93 1018.07 1018.18 1018.25 1018.32 1018.40 1018.51 1018.65 1018.83 1019.03 1019.24 1019.46 1019.66 1019.82 1019.94 1020.01 1020.04 1020.02 1019.97 1019.90 1019.80 1019.70 1019.58 1019.46 1019.33 1019.19 1019.04 1018.87 1018.70 1018.51 1018.31
1012.29 1012.82 1013.36 1013.90 1014.45 1015.00 1015.52 1016.03 1016.49 1016.90 1017.24 1017.52 1017.74 1017.90 1018.02 1018.12 1018.21 1018.31 1018.44 1018.60 1018.79 1019.00 1019.22 1019.44 1019.64 1019.81 1019.94 1020.03 1020.07 1020.07 1020.03 1019.95 1019.85 1019.71 1019.56 1019.38 1019.18 1018.96 1018.72 1018.48 1018.22 1017.97 1017.71
1012.23 1012.72 1013.24 1013.79 1014.36 1014.92 1015.47 1015.99 1016.47 1016.88 1017.24 1017.52 1017.75 1017.92 1018.06 1018.19 1018.31 1018.44 1018.59 1018.77 1018.97 1019.19 1019.42 1019.63 1019.83 1020.00 1020.13 1020.23 1020.27 1020.27 1020.23 1020.15 1020.03 1019.88 1019.69 1019.46 1019.20 1018.91 1018.60 1018.28 1017.95 1017.62 1017.30
1012.32 1012.78 1013.30 1013.86 1014.44 1015.04 1015.61 1016.16 1016.65 1017.08 1017.44 1017.74 1017.98 1018.17 1018.33 1018.48 1018.63 1018.79 1018.97 1019.17 1019.39 1019.61 1019.83 1020.04 1020.22 1020.38 1020.50 1020.57 1020.61 1020.61 1020.56 1020.47 1020.34 1020.17 1019.95 1019.69 1019.38 1019.05 1018.68 1018.30 1017.91 1017.52 1017.14
1012.58 1013.02 1013.54 1014.11 1014.73 1015.35 1015.95 1016.52 1017.04 1017.48 1017.86 1018.17 1018.42 1018.63 1018.82 1019.00 1019.17 1019.36 1019.56 1019.78 1020.00 1020.23 1020.44 1020.63 1020.79 1020.91 1021.00 1021.05 1021.06 1021.04 1020.98 1020.87 1020.73 1020.55 1020.31 1020.04 1019.71 1019.34 1018.94 1018.52 1018.08 1017.64 1017.21
1013.02 1013.45 1013.97 1014.56 1015.20 1015.85 1016.48 1017.07 1017.61 1018.07 1018.46 1018.78 1019.05 1019.28 1019.48 1019.68 1019.89 1020.10 1020.32 1020.55 1020.77 1020.99 1021.18 1021.34 1021.46 1021.55 1021.59 1021.60 1021.58 1021.52 1021.43 1021.32 1021.16 1020.97 1020.73 1020.45 1020.12 1019.74 1019.32 1018.87 1018.41 1017.93 1017.46
1013.64 1014.07 1014.60 1015.21 1015.86 1016.53 1017.18 1017.78 1018.32 1018.79 1019.19 1019.52 1019.80 1020.04 1020.26 1020.48 1020.71 1020.94 1021.17 1021.40 1021.62 1021.82 1021.98 1022.10 1022.17 1022.21 1022.20 1022.16 1022.09 1021.99 1021.88 1021.74 1021.57 1021.38 1021.14 1020.86 1020.53 1020.16 1019.74 1019.28 1018.80 1018.31 1017.81
1014.44 1014.88 1015.42 1016.03 1016.69 1017.36 1018.01 1018.61 1019.14 1019.60 1020.00 1020.33 1020.61 1020.86 1021.10 1021.33 1021.56 1021.80 1022.04 1022.26 1022.46 1022.63 1022.75 1022.82 1022.84 1022.81 1022.74 1022.64 1022.52 1022.38 1022.23 1022.07 1021.89 1021.69 1021.46 1021.19 1020.87 1020.51 1020.10 1019.64 1019.15 1018.64 1018.12
1015.44 1015.87 1016.41 1017.01 1017.66 1018.31 1018.94 1019.51 1020.03 1020.47 1020.85 1021.16 1021.44 1021.69 1021.92 1022.15 1022.39 1022.62 1022.84 1023.04 1023.21 1023.33 1023.41 1023.42 1023.38 1023.29 1023.16 1023.00 1022.83 1022.64 1022.46 1022.27 1022.08 1021.87 1021.64 1021.38 1021.07 1020.71 1020.31 1019.85 1019.36 1018.84 1018.31
1016.59 1017.03 1017.55 1018.13 1018.75 1019.36 1019.94 1020.47 1020.95 1021.35 1021.70 1021.99 1022.24 1022.48 1022.70 1022.92 1023.13 1023.34 1023.53 1023.69 1023.82 1023.89 1023.90 1023.85 1023.74 1023.59 1023.39 1023.18 1022.96 1022.74 1022.52 1022.31 1022.10 1021.88 1021.65 1021.38 1021.07 1020.72 1020.31 1019.86 1019.36 1018.83 1018.28
1017.87 1018.30 1018.80 1019.35 1019.91 1020.47 1020.99 1021.47 1021.88 1022.24 1022.54 1022.80 1023.02 1023.22 1023.41 1023.60 1023.78 1023.94 1024.09 1024.20 1024.26 1024.26 1024.21 1024.09 1023.92 1023.70 1023.45 1023.19 1022.92 1022.67 1022.42 1022.19 1021.96 1021.73 1021.48 1021.20 1020.89 1020.53 1020.11 1019.65 1019.14 1018.60 1018.04
1019.22 1019.64 1020.11 1020.61 1021.12 1021.61 1022.06 1022.47 1022.82 1023.12 1023.37 1023.58 1023.76 1023.92 1024.07 1024.21 1024.33 1024.44 1024.53 1024.57 1024.55 1024.49 1024.36 1024.17 1023.94 1023.67 1023.37 1023.06 1022.76 1022.47 1022.20 1021.95 1021.70 1021.45 1021.18 1020.88 1020.55 1020.16 1019.73 1019.24 1018.72 1018.16 1017.59
1020.57 1020.98 1021.42 1021.87 1022.32 1022.74 1023.13 1023.47 1023.76 1023.99 1024.19 1024.34 1024.47 1024.58 1024.68 1024.76 1024.83 1024.87 1024.87 1024.84 1024.75 1024.60 1024.40 1024.15 1023.86 1023.53 1023.20 1022.86 1022.53 1022.21 1021.92 1021.64 1021.37 1021.09 1020.79 1020.46 1020.09 1019.68 1019.21 1018.70 1018.15 1017.58 1017.00
Thickness
5719 5719 5718 5717 5716 5715 5714 5712 5711 5710 5709 5707 5706 5704 5703 5702 5700 5699 5696 5695 5693 5691 5690 5688 5687 5686 5684 5683 5682 5681 5678 5675 5669 5667 5667 5668 5667 5667 5668 5669 5670 5671 5671
5719 5718 5717 5716 5715 5713 5712 5711 5710 5709 5708 5706 5704 5702 5701 5699 5698 5696 5694 5692 5690 5688 5687 5685 5684 5683 5681 5680 5679 5677 5675 5674 5670 5665 5664 5664 5663 5663 5663 5664 5665 5665 5666
5719 5717 5715 5713 5712 5712 5711 5710 5708 5707 5705 5703 5702 5700 5698 5697 5695 5694 5692 5690 5688 5687 5685 5683 5681 5679 5677 5676 5675 5673 5672 5671 5668 5665 5661 5660 5659 5659 5658 5658 5659 5660 5661
5718 5715 5713 5712 5712 5711 5709 5708 5706 5705 5702 5701 5699 5698 5696 5695 5693 5691 5689 5687 5685 5684 5682 5680 5679 5677 5676 5674 5672 5670 5668 5666 5664 5661 5658 5656 5655 5654 5652 5651 5651 5653 5654
5716 5714 5713 5712 5711 5709 5707 5705 5704 5702 5701 5698 5696 5695 5694 5692 5691 5689 5687 5684 5682 5680 5678 5677 5676 5675 5674 5673 5670 5667 5665 5661 5658 5655 5653 5651 5649 5647 5646 5645 5645 5645 5647
5716 5713 5712 5710 5708 5706 5705 5702 5700 5698 5696 5695 5693 5691 5690 5690 5689 5688 5685 5682 5679 5676 5674 5672 5672 5671 5671 5669 5668 5666 5663 5659 5654 5651 5648 5646 5645 5644 5642 5641 5639 5638 5638
5715 5713 5710 5708 5706 5704 5703 5699 5697 5695 5693 5690 5689 5688 5686 5686 5686 5684 5682 5679 5676 5673 5670 5669 5668 5667 5666 5664 5662 5661 5659 5657 5655 5651 5646 5644 5642 5641 5639 5636 5633 5631 5631
5713 5711 5709 5707 5704 5702 5699 5696 5694 5692 5690 5687 5685 5684 5682 5682 5682 5680 5678 5675 5672 5669 5667 5666 5664 5662 5661 5659 5657 5654 5652 5651 5650 5648 5645 5643 5641 5639 5635 5632 5629 5626 5625
5711 5709 5708 5706 5702 5699 5695 5693 5691 5689 5686 5684 5683 5680 5678 5677 5677 5676 5673 5670 5666 5665 5663 5661 5660 5658 5657 5655 5651 5648 5645 5644 5644 5642 5640 5638 5635 5633 5629 5625 5620 5617 5615
5710 5709 5707 5704 5701 5697 5694 5691 5689 5686 5684 5681 5678 5677 5675 5673 5673 5671 5669 5665 5661 5659 5658 5657 5656 5654 5653 5650 5646 5643 5639 5639 5637 5635 5633 5630 5628 5625 5622 5618 5614 5608 5604
5709 5706 5704 5701 5698 5695 5692 5688 5685 5682 5679 5676 5673 5671 5670 5669 5668 5667 5664 5661 5658 5655 5653 5652 5651 5650 5648 5646 5643 5639 5637 5635 5631 5628 5624 5621 5619 5616 5613 5611 5607 5603 5598
5705 5702 5699 5697 5695 5692 5687 5683 5681 5677 5673 5670 5667 5665 5664 5663 5662 5661 5660 5658 5655 5651 5649 5648 5646 5645 5643 5640 5637 5635 5632 5628 5623 5619 5616 5613 5610 5608 5606 5603 5600 5597 5594
5699 5696 5694 5692 5689 5687 5683 5678 5674 5671 5668 5665 5662 5659 5658 5657 5656 5656 5655 5653 5651 5647 5645 5643 5641 5639 5636 5633 5631 5628 5625 5620 5615 5611 5608 5606 5604 5602 5598 5595 5592 5589 5586
5693 5690 5688 5685 5682 5680 5678 5675 5671 5667 5663 5660 5657 5654 5652 5651 5650 5649 5648 5646 5644 5641 5639 5637 5634 5632 5629 5626 5623 5620 5616 5612 5608 5605 5602 5600 5596 5592 5589 5585 5582 5578 5575
5686 5683 5680 5678 5675 5672 5670 5668 5666 5664 5662 5657 5654 5651 5648 5645 5646 5645 5642 5640 5637 5635 5631 5627 5624 5621 5618 5615 5613 5610 5607 5603 5600 5597 5593 5590 5587 5583 5580 5576 5572 5568 5564
5679 5676 5673 5670 5667 5665 5662 5658 5658 5657 5655 5653 5650 5647 5645 5643 5641 5639 5637 5634 5631 5628 5623 5618 5615 5612 5609 5606 5603 5601 5598 5594 5592 5588 5585 5581 5578 5575 5571 5568 5563 5559 5556
5673 5669 5666 5664 5660 5657 5654 5651 5647 5645 5645 5643 5642 5639 5637 5635 5633 5631 5629 5626 5622 5619 5613 5610 5606 5603 5600 5598 5595 5592 5589 5586 5583 5579 5575 5572 5569 5565 5562 5558 5554 5550 5548
5667 5664 5660 5657 5654 5651 5647 5644 5641 5637 5634 5632 5631 5630 5629 5627 5624 5622 5619 5615 5610 5607 5603 5600 5597 5594 5591 5589 5586 5582 5580 5576 5573 5569 5565 5562 5558 5555 5552 5548 5545 5541 5538
5659 5655 5653 5649 5646 5643 5640 5636 5633 5630 5627 5624 5621 5620 5619 5616 5614 5611 5608 5604 5600 5597 5593 5590 5588 5585 5582 5579 5576 5572 5569 5565 5562 5558 5554 5551 5547 5544 5541 5538 5535 5532 5528
5650 5649 5645 5642 5638 5635 5631 5628 5624 5621 5618 5615 5612 5610 5608 5605 5601 5599 5596 5593 5590 5587 5584 5581 5578 5575 5571 5568 5565 5561 5557 5554 5550 5546 5543 5540 5536 5533 5530 5527 5523 5520 5517
5642 5640 5637 5633 5629 5626 5623 5619 5615 5612 5608 5605 5603 5602 5599 5595 5592 5589 5585 5582 5579 5576 5573 5570 5567 5563 5560 5556 5553 5549 5545 5541 5537 5534 5530 5527 5523 5520 5517 5514 5510 5506 5503
5633 5630 5627 5623 5620 5617 5613 5610 5606 5602 5599 5596 5593 5591 5588 5584 5581 5578 5574 5571 5568 5565 5562 5558 5555 5551 5547 5543 5540 5536 5531 5528 5524 5520 5517 5513 5510 5506 5503 5500 5496 5493 5489
5624 5620 5616 5613 5610 5607 5603 5599 5596 5592 5589 5586 5582 5579 5576 5572 5569 5565 5562 5559 5555 5552 5548 5545 5541 5537 5533 5529 5525 5521 5516 5513 5509 5505 5502 5499 5495 5492 5488 5485 5482 5479 5476
5613 5610 5606 5602 5599 5595 5591 5588 5585 5582 5578 5574 5571 5567 5563 5559 5556 5552 5548 5545 5541 5538 5534 5530 5526 5522 5518 5514 5509 5505 5501 5497 5493 5490 5486 5483 5480 5477 5474 5471 5468 5465 5462
5602 5599 5595 5591 5588 5584 5580 5576 5572 5569 5566 5562 5558 5554 5550 5546 5542 5538 5534 5530 5527 5523 5519 5515 5511 5507 5503 5499 5494 5490 5486 5482 5478 5474 5470 5467 5464 5461 5458 5456 5453 5451 5448
5591 5587 5583 5580 5576 5572 5568 5564 5560 5556 5552 5548 5544 5540 5536 5532 5528 5524 5520 5516 5512 5508 5505 5500 5496 5492 5488 5483 5479 5475 5471 5467 5463 5459 5455 5452 5449 5446 5443 5441 5439 5436 5434